• In Hungary
  • List of Countries
  • For 7 days
  • Water Temperature
  • Satellite Maps
  • Weather Map
  • News
  • Weather Widgets
  • user-avatar
    Login

    Hourly Weather Konce

    Today, 19 January, Friday

    Time Temperature Precipitation Wind Pressure Humidity
    00:00 -3°C° 0 mm 2 mps 695 mmHg 61%
    01:00 0°C° 0 mm 1 mps 694 mmHg 58%
    02:00 0°C° 0 mm 1 mps 694 mmHg 57%
    03:00 -1°C° 0 mm 1 mps 694 mmHg 57%
    04:00 -1°C° 0 mm 1 mps 694 mmHg 56%
    05:00 0°C° 0 mm 1 mps 694 mmHg 56%
    06:00 0°C° 0 mm 1 mps 694 mmHg 55%
    07:00 0°C° 0 mm 1 mps 694 mmHg 55%
    08:00 +2°C° 0 mm 1 mps 694 mmHg 50%
    09:00 +4°C° 0 mm 1 mps 694 mmHg 46%
    10:00 +6°C° 0 mm 1 mps 694 mmHg 41%
    11:00 +7°C° 0 mm 1 mps 694 mmHg 40%
    12:00 +7°C° 0 mm 1 mps 694 mmHg 39%
    13:00 +7°C° 0 mm 2 mps 694 mmHg 38%
    14:00 +7°C° 0 mm 1 mps 694 mmHg 43%
    15:00 +7°C° 0 mm 1 mps 694 mmHg 47%
    16:00 +6°C° 0 mm 1 mps 694 mmHg 52%
    17:00 +5°C° 0 mm 1 mps 693 mmHg 54%
    18:00 +4°C° 0 mm 1 mps 693 mmHg 56%
    19:00 +3°C° 0 mm 1 mps 693 mmHg 59%
    20:00 +3°C° 0 mm 1 mps 693 mmHg 60%
    21:00 +3°C° 0 mm 1 mps 693 mmHg 60%
    22:00 +3°C° 0 mm 1 mps 693 mmHg 61%
    23:00 +2°C° 0 mm 1 mps 693 mmHg 62%

    Tomorrow, 20 January, Saturday

    Time Temperature Precipitation Wind Pressure Humidity
    00:00 +2°C° 0 mm 1 mps 693 mmHg 62%
    01:00 +2°C° 0 mm 1 mps 693 mmHg 63%
    02:00 +2°C° 0 mm 1 mps 693 mmHg 64%
    03:00 +2°C° 0 mm 1 mps 693 mmHg 65%
    04:00 +2°C° 0 mm 1 mps 692 mmHg 66%
    05:00 +2°C° 0 mm 1 mps 692 mmHg 67%
    06:00 +1°C° 0 mm 2 mps 692 mmHg 68%
    07:00 +1°C° 0 mm 2 mps 692 mmHg 69%
    08:00 +3°C° 0 mm 2 mps 692 mmHg 66%
    09:00 +4°C° 0 mm 2 mps 692 mmHg 63%
    10:00 +6°C° 0 mm 2 mps 692 mmHg 60%
    11:00 +7°C° 0 mm 3 mps 692 mmHg 59%
    12:00 +8°C° 0 mm 3 mps 692 mmHg 59%
    13:00 +9°C° 0 mm 3 mps 691 mmHg 59%
    14:00 +8°C° 0.1 mm 3 mps 691 mmHg 63%
    15:00 +7°C° 0.1 mm 3 mps 691 mmHg 67%
    16:00 +5°C° 0.1 mm 3 mps 691 mmHg 71%
    17:00 +5°C° 0.5 mm 2 mps 691 mmHg 76%
    18:00 +4°C° 0.5 mm 2 mps 692 mmHg 80%
    19:00 +3°C° 0.5 mm 2 mps 692 mmHg 85%
    20:00 +3°C° 0 mm 2 mps 692 mmHg 85%
    21:00 +2°C° 0 mm 2 mps 692 mmHg 86%
    22:00 +1°C° 0 mm 2 mps 692 mmHg 87%
    23:00 +2°C° 0 mm 1 mps 692 mmHg 86%

    Day after tomorrow, 21 January, Sunday

    Time Temperature Precipitation Wind Pressure Humidity
    00:00 +2°C° 0 mm 1 mps 692 mmHg 85%
    01:00 +1°C° 0 mm 1 mps 692 mmHg 84%
    02:00 +2°C° 0 mm 1 mps 692 mmHg 81%
    03:00 +2°C° 0 mm 1 mps 691 mmHg 79%
    04:00 +2°C° 0 mm 1 mps 691 mmHg 76%
    05:00 +2°C° 0 mm 1 mps 691 mmHg 75%
    06:00 +3°C° 0 mm 1 mps 691 mmHg 74%
    07:00 +3°C° 0 mm 1 mps 691 mmHg 72%
    08:00 +4°C° 0.1 mm 1 mps 691 mmHg 70%
    09:00 +5°C° 0.1 mm 1 mps 691 mmHg 68%
    10:00 +5°C° 0.1 mm 1 mps 690 mmHg 66%
    11:00 +6°C° 0.3 mm 1 mps 690 mmHg 68%
    12:00 +5°C° 0.3 mm 2 mps 689 mmHg 69%
    13:00 +5°C° 0.3 mm 2 mps 688 mmHg 71%
    14:00 +6°C° 0.4 mm 1 mps 688 mmHg 75%
    15:00 +5°C° 0.4 mm 1 mps 688 mmHg 78%
    16:00 +5°C° 0.4 mm 1 mps 688 mmHg 82%
    17:00 +4°C° 0.3 mm 1 mps 688 mmHg 84%
    18:00 +3°C° 0.3 mm 2 mps 688 mmHg 86%
    19:00 +3°C° 0.3 mm 2 mps 688 mmHg 87%
    20:00 +1°C° 0.1 mm 3 mps 689 mmHg 87%
    21:00 +1°C° 0.1 mm 3 mps 689 mmHg 86%
    22:00 0°C° 0.1 mm 3 mps 689 mmHg 85%
    23:00 -1°C° 0 mm 3 mps 689 mmHg 84%

    22 January, Monday

    Time Temperature Precipitation Wind Pressure Humidity
    00:00 -1°C° 0 mm 3 mps 689 mmHg 84%
    01:00 -2°C° 0 mm 3 mps 689 mmHg 83%
    02:00 -2°C° 0 mm 3 mps 690 mmHg 81%
    03:00 -4°C° 0 mm 3 mps 690 mmHg 79%
    04:00 -4°C° 0 mm 4 mps 690 mmHg 77%
    05:00 -5°C° 0 mm 4 mps 691 mmHg 76%
    06:00 -5°C° 0 mm 3 mps 691 mmHg 74%
    07:00 -6°C° 0 mm 3 mps 692 mmHg 72%
    08:00 -4°C° 0 mm 4 mps 692 mmHg 66%
    09:00 -4°C° 0 mm 5 mps 693 mmHg 59%
    10:00 -3°C° 0 mm 7 mps 694 mmHg 53%
    11:00 -3°C° 0 mm 6 mps 694 mmHg 51%
    12:00 -2°C° 0 mm 6 mps 694 mmHg 49%
    13:00 -2°C° 0 mm 6 mps 694 mmHg 47%
    14:00 -1°C° 0 mm 5 mps 694 mmHg 50%
    15:00 -2°C° 0 mm 5 mps 695 mmHg 52%
    16:00 -3°C° 0 mm 4 mps 695 mmHg 55%
    17:00 -4°C° 0 mm 3 mps 696 mmHg 59%
    18:00 -5°C° 0 mm 3 mps 696 mmHg 63%
    19:00 -4°C° 0 mm 2 mps 697 mmHg 68%
    20:00 -5°C° 0 mm 2 mps 697 mmHg 67%
    21:00 -5°C° 0 mm 2 mps 697 mmHg 67%
    22:00 -5°C° 0 mm 2 mps 697 mmHg 66%
    23:00 -3°C° 0 mm 1 mps 697 mmHg 65%

    23 January, Tuesday

    Time Temperature Precipitation Wind Pressure Humidity
    00:00 -3°C° 0 mm 1 mps 697 mmHg 64%
    01:00 -2°C° 0 mm 1 mps 697 mmHg 63%
    02:00 -2°C° 0 mm 1 mps 697 mmHg 61%
    03:00 -2°C° 0 mm 1 mps 696 mmHg 60%
    04:00 -2°C° 0 mm 1 mps 696 mmHg 59%
    05:00 -2°C° 0 mm 1 mps 696 mmHg 57%
    06:00 -2°C° 0 mm 1 mps 696 mmHg 55%
    07:00 -2°C° 0 mm 1 mps 697 mmHg 53%
    08:00 0°C° 0 mm 1 mps 697 mmHg 49%
    09:00 +2°C° 0 mm 1 mps 698 mmHg 44%
    10:00 +3°C° 0 mm 1 mps 698 mmHg 40%
    11:00 +4°C° 0 mm 1 mps 698 mmHg 42%
    12:00 +4°C° 0 mm 1 mps 698 mmHg 45%
    13:00 +4°C° 0 mm 2 mps 698 mmHg 47%
    14:00 +4°C° 0 mm 2 mps 698 mmHg 52%
    15:00 +3°C° 0 mm 2 mps 698 mmHg 57%
    16:00 +4°C° 0 mm 1 mps 698 mmHg 61%
    17:00 +2°C° 0 mm 2 mps 699 mmHg 65%
    18:00 +1°C° 0 mm 2 mps 699 mmHg 69%
    19:00 -1°C° 0 mm 2 mps 699 mmHg 73%
    20:00 -1°C° 0 mm 2 mps 700 mmHg 77%
    21:00 -1°C° 0 mm 2 mps 700 mmHg 80%
    22:00 -2°C° 0 mm 2 mps 700 mmHg 84%
    23:00 -2°C° 0 mm 2 mps 700 mmHg 84%

    24 January, Wednesday

    Time Temperature Precipitation Wind Pressure Humidity
    00:00 -2°C° 0 mm 2 mps 701 mmHg 85%
    01:00 -2°C° 0 mm 2 mps 701 mmHg 85%
    02:00 -2°C° 0 mm 2 mps 701 mmHg 85%
    03:00 -3°C° 0 mm 2 mps 701 mmHg 85%
    04:00 -3°C° 0 mm 2 mps 701 mmHg 85%
    05:00 -3°C° 0 mm 2 mps 701 mmHg 84%
    06:00 -3°C° 0 mm 2 mps 701 mmHg 83%
    07:00 -3°C° 0 mm 2 mps 701 mmHg 83%
    08:00 -1°C° 0 mm 2 mps 702 mmHg 76%
    09:00 +2°C° 0 mm 2 mps 702 mmHg 70%
    10:00 +4°C° 0 mm 2 mps 702 mmHg 64%
    11:00 +5°C° 0 mm 2 mps 702 mmHg 63%
    12:00 +4°C° 0 mm 3 mps 702 mmHg 61%
    13:00 +5°C° 0 mm 3 mps 702 mmHg 60%
    14:00 +5°C° 0.1 mm 3 mps 702 mmHg 64%
    15:00 +5°C° 0.1 mm 2 mps 702 mmHg 68%
    16:00 +4°C° 0.1 mm 2 mps 702 mmHg 71%
    17:00 +4°C° 0 mm 2 mps 702 mmHg 75%
    18:00 +3°C° 0 mm 2 mps 702 mmHg 79%
    19:00 +2°C° 0 mm 2 mps 702 mmHg 83%
    20:00 +1°C° 0 mm 2 mps 703 mmHg 84%
    21:00 +1°C° 0 mm 2 mps 703 mmHg 85%
    22:00 -1°C° 0 mm 2 mps 703 mmHg 86%
    23:00 -1°C° 0 mm 2 mps 703 mmHg 86%
    Show more